Weather History for KMAN - April, 2013

Change the Weather History Date:

Monday, April 22, 2013

  Actual Average (KBOI) Record (KBOI)
Temperature  
Mean Temperature 48 °F 52 °F  
Max Temperature 55 °F 64 °F 91 °F (2012)
Min Temperature 41 °F 40 °F 24 °F (1968)
Degree Days  
Heating Degree Days 17 13  
Month to date heating degree days 334  
Since 1 July heating degree days 5129  
Cooling Degree Days 0 0  
Month to date cooling degree days 0  
Year to date cooling degree days 0  
Moisture  
Dew Point 20 °F    
Average Humidity 38    
Maximum Humidity 61    
Minimum Humidity 14    
Precipitation  
Precipitation 0.00 in 0.05 in 0.62 in (1882)
Month to date precipitation 0.90  
Year to date precipitation 4.52  
Snow  
Snow 0.00 in 0.00 in 1.60 in (1899)
Month to date snowfall 0.3  
Since 1 July snowfall 19.2  
Snow Depth -    
Sea Level Pressure  
Sea Level Pressure 30.22 in    
Wind  
Wind Speed 14 mph (NW)    
Max Wind Speed 23 mph    
Max Gust Speed 34 mph    
Visibility 10 miles    
Events      
T = Trace of Precipitation, MM = Missing Value Source: NWS Daily Summary

Daily Weather History Graph

Daily Weather History Graph

Search for Another Location

Airport or City:

Trip Planner

Search our weather history database for the weather conditions in past years. The results will help you decide how hot, cold, wet, or windy it might be!

Date:

Astronomy

Apr. 22, 2013 Rise Set
Actual Time 6:51 AM MDT 8:38 PM MDT
Civil Twilight 6:21 AM MDT 9:08 PM MDT
Nautical Twilight 5:44 AM MDT 9:46 PM MDT
Astronomical Twilight 5:03 AM MDT 10:26 PM MDT
Moon 5:26 PM MDT (4/22) 4:54 AM MDT (4/22)
Length of Visible Light 14h 47m
Length of Day
13h 46m
Waxing Gibbous, 88% of the Moon is Illuminated
Apr 22
Waxing Gibbous
Apr 25
Full
May 2
Last Quarter
May 9
New
May 17
First Quarter

Hourly Weather History & Observations

Time (MDT) Temp. Windchill Dew Point Humidity Pressure Visibility Wind Dir Wind Speed Gust Speed Precip Events Conditions
12:15 AM 48.2 °F - 33.8 °F 58% 30.08 in 10.0 mi West 9.2 mph - N/A   Overcast
12:35 AM 48.2 °F - 33.8 °F 58% 30.09 in 10.0 mi WNW 9.2 mph - N/A   Overcast
12:55 AM 48.2 °F - 32.0 °F 54% 30.10 in 10.0 mi WNW 10.4 mph - N/A   Overcast
1:15 AM 48.2 °F - 32.0 °F 54% 30.11 in 10.0 mi NW 12.7 mph 18.4 mph N/A   Overcast
1:55 AM 46.4 °F 40.7 °F 32.0 °F 57% 30.12 in 10.0 mi WNW 12.7 mph - N/A   Overcast
2:15 AM 46.4 °F 39.5 °F 32.0 °F 57% 30.12 in 10.0 mi NW 17.3 mph 23.0 mph N/A   Overcast
2:35 AM 44.6 °F 36.6 °F 30.2 °F 57% 30.12 in 10.0 mi NW 19.6 mph 27.6 mph N/A   Overcast
2:55 AM 44.6 °F 37.8 °F 30.2 °F 57% 30.14 in 10.0 mi NW 15.0 mph 20.7 mph N/A   Overcast
3:15 AM 42.8 °F 35.8 °F 28.4 °F 57% 30.14 in 10.0 mi NW 13.8 mph 20.7 mph N/A   Overcast
3:35 AM 42.8 °F 35.8 °F 28.4 °F 57% 30.14 in 10.0 mi NW 13.8 mph 19.6 mph N/A   Mostly Cloudy
3:55 AM 42.8 °F 36.2 °F 28.4 °F 57% 30.14 in 10.0 mi NW 12.7 mph 19.6 mph N/A   Mostly Cloudy
4:15 AM 42.8 °F 35.4 °F 26.6 °F 53% 30.15 in 10.0 mi NW 15.0 mph 23.0 mph N/A   Overcast
4:35 AM 41.0 °F 33.5 °F 26.6 °F 57% 30.15 in 10.0 mi NW 13.8 mph 20.7 mph N/A   Overcast
4:55 AM 41.0 °F 34.3 °F 26.6 °F 57% 30.16 in 10.0 mi NW 11.5 mph 16.1 mph N/A   Overcast
5:15 AM 41.0 °F 33.1 °F 28.4 °F 61% 30.17 in 10.0 mi NW 15.0 mph 24.2 mph N/A   Overcast
5:35 AM 41.0 °F 33.5 °F 26.6 °F 57% 30.17 in 10.0 mi NW 13.8 mph 19.6 mph N/A   Overcast
5:55 AM 41.0 °F 33.5 °F 28.4 °F 61% 30.18 in 10.0 mi NW 13.8 mph 23.0 mph N/A   Overcast
6:15 AM 41.0 °F 32.8 °F 28.4 °F 61% 30.19 in 10.0 mi NW 16.1 mph 23.0 mph N/A   Overcast
6:35 AM 41.0 °F 33.1 °F 28.4 °F 61% 30.20 in 10.0 mi NW 15.0 mph - N/A   Mostly Cloudy
6:55 AM 41.0 °F 33.9 °F 28.4 °F 61% 30.21 in 10.0 mi NW 12.7 mph 20.7 mph N/A   Scattered Clouds
7:15 AM 41.0 °F 33.1 °F 28.4 °F 61% 30.22 in 10.0 mi NW 15.0 mph 23.0 mph N/A   Clear
7:35 AM 41.0 °F 32.8 °F 28.4 °F 61% 30.22 in 10.0 mi NW 16.1 mph 21.9 mph N/A   Clear
7:55 AM 41.0 °F 34.3 °F 28.4 °F 61% 30.24 in 10.0 mi NW 11.5 mph 19.6 mph N/A   Clear
8:15 AM 41.0 °F 33.1 °F 28.4 °F 61% 30.24 in 10.0 mi NNW 15.0 mph 21.9 mph N/A   Clear
8:35 AM 42.8 °F 35.8 °F 28.4 °F 57% 30.25 in 10.0 mi NNW 13.8 mph 23.0 mph N/A   Clear
8:55 AM 44.6 °F 36.4 °F 28.4 °F 53% 30.25 in 10.0 mi NW 20.7 mph 25.3 mph N/A   Clear
9:15 AM 44.6 °F 36.9 °F 28.4 °F 53% 30.26 in 10.0 mi NNW 18.4 mph 24.2 mph N/A   Clear
9:35 AM 46.4 °F 39.2 °F 28.4 °F 50% 30.26 in 10.0 mi NW 18.4 mph 23.0 mph N/A   Clear
9:55 AM 46.4 °F 39.5 °F 26.6 °F 46% 30.26 in 10.0 mi NNW 17.3 mph 26.5 mph N/A   Partly Cloudy
10:15 AM 46.4 °F 40.1 °F 26.6 °F 46% 30.26 in 10.0 mi NW 15.0 mph 23.0 mph N/A   Scattered Clouds
10:35 AM 48.2 °F - 26.6 °F 43% 30.26 in 10.0 mi NW 15.0 mph 24.2 mph N/A   Scattered Clouds
10:55 AM 48.2 °F - 24.8 °F 40% 30.26 in 10.0 mi NNW 16.1 mph 24.2 mph N/A   Scattered Clouds
11:15 AM 50.0 °F - 23.0 °F 35% 30.26 in 10.0 mi NNW 13.8 mph 28.8 mph N/A   Partly Cloudy
11:35 AM 50.0 °F - 23.0 °F 35% 30.25 in 10.0 mi NNW 18.4 mph 27.6 mph N/A   Partly Cloudy
11:55 AM 50.0 °F - 19.4 °F 30% 30.25 in 10.0 mi NW 19.6 mph 28.8 mph N/A   Clear
12:15 PM 53.6 °F - 15.8 °F 22% 30.25 in 10.0 mi NNW 17.3 mph 25.3 mph N/A   Clear
12:35 PM 53.6 °F - 14.0 °F 21% 30.24 in 10.0 mi NNW 20.7 mph 27.6 mph N/A   Clear
12:55 PM 53.6 °F - 10.4 °F 18% 30.24 in 10.0 mi NNW 19.6 mph 27.6 mph N/A   Clear
1:15 PM 55.4 °F - 8.6 °F 15% 30.23 in 10.0 mi NNW 23.0 mph 34.5 mph N/A   Clear
1:35 PM 53.6 °F - 8.6 °F 16% 30.23 in 10.0 mi NNW 20.7 mph 32.2 mph N/A   Clear
1:55 PM 53.6 °F - 6.8 °F 15% 30.23 in 10.0 mi NNW 18.4 mph 28.8 mph N/A   Clear
2:15 PM 55.4 °F - 6.8 °F 14% 30.23 in 10.0 mi North 17.3 mph 32.2 mph N/A   Clear
2:35 PM 55.4 °F - 6.8 °F 14% 30.23 in 10.0 mi NNW 20.7 mph 29.9 mph N/A   Clear
2:55 PM 55.4 °F - 10.4 °F 17% 30.23 in 10.0 mi NW 20.7 mph 29.9 mph N/A   Clear
3:15 PM 55.4 °F - 10.4 °F 17% 30.23 in 10.0 mi NW 18.4 mph 29.9 mph N/A   Clear
3:35 PM 55.4 °F - 10.4 °F 17% 30.23 in 10.0 mi NNW 15.0 mph 32.2 mph N/A   Clear
3:55 PM 55.4 °F - 10.4 °F 17% 30.23 in 10.0 mi NNW 19.6 mph 27.6 mph N/A   Clear
4:15 PM 55.4 °F - 12.2 °F 18% 30.22 in 10.0 mi NW 18.4 mph 28.8 mph N/A   Clear
4:35 PM 55.4 °F - 10.4 °F 17% 30.22 in 10.0 mi NNW 17.3 mph 26.5 mph N/A   Clear
4:55 PM 55.4 °F - 12.2 °F 18% 30.22 in 10.0 mi NNW 18.4 mph 29.9 mph N/A   Clear
5:15 PM 55.4 °F - 10.4 °F 17% 30.22 in 10.0 mi NW 17.3 mph 32.2 mph N/A   Clear
5:35 PM 55.4 °F - 12.2 °F 18% 30.22 in 10.0 mi NNW 16.1 mph 29.9 mph N/A   Clear
5:55 PM 55.4 °F - 14.0 °F 20% 30.21 in 10.0 mi NNW 18.4 mph 24.2 mph N/A   Clear
6:15 PM 53.6 °F - 12.2 °F 19% 30.22 in 10.0 mi NNW 19.6 mph 27.6 mph N/A   Clear
6:35 PM 53.6 °F - 12.2 °F 19% 30.22 in 10.0 mi NNW 20.7 mph 28.8 mph N/A   Clear
6:55 PM 53.6 °F - 8.6 °F 16% 30.22 in 10.0 mi North 16.1 mph 26.5 mph N/A   Clear
7:15 PM 53.6 °F - 8.6 °F 16% 30.23 in 10.0 mi NNW 15.0 mph 25.3 mph N/A   Clear
7:35 PM 51.8 °F - 8.6 °F 18% 30.23 in 10.0 mi North 13.8 mph 23.0 mph N/A   Clear
7:55 PM 50.0 °F - 10.4 °F 20% 30.24 in 10.0 mi North 11.5 mph 21.9 mph N/A   Clear
8:15 PM 50.0 °F - 10.4 °F 20% 30.24 in 10.0 mi NNW 12.7 mph 19.6 mph N/A   Clear
8:35 PM 48.2 °F - 12.2 °F 24% 30.25 in 10.0 mi NNW 13.8 mph 19.6 mph N/A   Clear
8:55 PM 48.2 °F - 14.0 °F 25% 30.26 in 10.0 mi NNW 13.8 mph 19.6 mph N/A   Clear
9:15 PM 46.4 °F 40.1 °F 15.8 °F 29% 30.27 in 10.0 mi NNW 15.0 mph 19.6 mph N/A   Clear
9:35 PM 46.4 °F 40.4 °F 15.8 °F 29% 30.27 in 10.0 mi NNW 13.8 mph 20.7 mph N/A   Clear
9:55 PM 44.6 °F 38.4 °F 15.8 °F 31% 30.28 in 10.0 mi NNW 12.7 mph 17.3 mph N/A   Clear
10:15 PM 44.6 °F 38.8 °F 15.8 °F 31% 30.28 in 10.0 mi NNW 11.5 mph - N/A   Clear
10:35 PM 44.6 °F 39.7 °F 15.8 °F 31% 30.29 in 10.0 mi NNW 9.2 mph - N/A   Clear
10:55 PM 44.6 °F 38.1 °F 15.8 °F 31% 30.29 in 10.0 mi North 13.8 mph 19.6 mph N/A   Clear
11:15 PM 42.8 °F 35.8 °F 15.8 °F 34% 30.29 in 10.0 mi North 13.8 mph 18.4 mph N/A   Clear
11:35 PM 41.0 °F 34.7 °F 17.6 °F 39% 30.29 in 10.0 mi NNW 10.4 mph 17.3 mph N/A   Clear
11:55 PM 41.0 °F 34.7 °F 17.6 °F 39% 30.29 in 10.0 mi WNW 10.4 mph - N/A   Clear